#timestamp,LO_Frequency,Hit,StdDev 
1543989615.9,286046998.3,N
1543989635.7,286046999.2,N
1543989655.6,286046997.9,N
1543989675.4,286046993.8,N
1543989695.2,286046992.0,N
1543989715.1,286046993.1,N
1543989716.0,286046993.1,N
1543989735.8,286046989.3,N
1543989755.6,286046987.7,N
1543989775.5,286046985.5,N
1543989795.3,286046988.4,N
1543989815.1,286046985.8,N
1543989835.9,286046985.4,N
1543989855.7,286046988.0,N
1543989875.6,286046985.4,N
1543989895.4,286046985.8,N
1543989915.2,286046983.7,N
1543989935.1,286046985.0,N
1543989936.0,286046985.0,N
1543989955.8,286046985.0,N
1543989975.7,286046984.1,N
1543989995.5,286046986.7,N
1543990015.3,286046986.7,N
1543990035.2,286046983.7,N
1543990055.0,286046984.0,N
1543990055.9,286046984.0,N
1543990075.8,286046984.2,N
1543990095.6,286046982.4,N
1543990115.4,286046982.3,N
1543990135.3,286046982.4,Y
1543990155.1,286046994.9,P
1543990175.8,286046993.7,N
1543990195.7,286046995.2,N
1543990215.5,286046997.1,N
1543990235.4,286046994.9,N
1543990255.2,286046995.2,N
1543990275.0,286046995.9,N
1543990275.9,286046995.9,N
1543990295.8,286046993.6,N
1543990315.6,286046994.5,N
1543990335.5,286046994.3,N
1543990355.3,286046995.8,N
1543990375.1,286046996.7,N
1543990395.9,286046995.3,N
1543990415.7,286046995.7,N
1543990435.5,286046993.6,Y
1543990455.4,286046998.6,P
1543990475.2,286046998.7,N
1543990495.1,286046999.0,N
1543990496.0,286046999.0,N
1543990515.8,286046998.9,N
1543990535.6,286046999.0,N
1543990555.5,286046999.0,N
1543990575.3,286046997.7,N
1543990595.1,286046997.9,N
1543990615.9,286046997.6,N
1543990635.7,286046996.5,N
1543990655.6,286046996.6,N
1543990675.4,286046999.5,N
1543990695.2,286047001.2,N
1543990715.1,286046996.5,N
1543990716.0,286046996.5,N
1543990735.8,286046998.5,N
1543990755.6,286046999.1,N
1543990775.5,286046996.7,N
1543990795.3,286046997.1,N
1543990815.2,286046997.0,N
1543990835.9,286046997.5,N
1543990855.7,286046997.6,N
1543990875.6,286046997.9,N
1543990895.4,286046996.2,N
1543990915.2,286046996.2,N
1543990935.1,286046996.2,N
1543990936.0,286046996.2,N
1543990955.8,286046995.1,Y
1543990975.7,286046999.4,P
1543990995.5,286046999.3,N
1543991015.3,286046997.4,P
1543991035.2,286046997.8,N
1543991055.0,286046994.9,Y
1543991055.9,286046994.9,P
1543991075.7,286046997.4,N
1543991095.6,286046997.4,N
1543991115.4,286046997.3,N
1543991135.3,286046997.5,N
1543991155.1,286046999.5,N
1543991156.0,286046999.5,N
1543991175.8,286046996.9,N
1543991195.7,286047001.2,N
1543991215.5,286047001.6,N
1543991235.3,286047003.2,N
1543991255.2,286047004.2,N
1543991275.0,286047003.2,N
1543991275.9,286047003.2,N
1543991295.8,286047004.2,N
1543991315.6,286047006.0,N
1543991335.4,286047003.4,N
1543991355.3,286047003.8,N
1543991375.1,286047002.5,N
1543991395.9,286047001.8,N
1543991415.7,286047002.1,N
1543991435.5,286047000.0,N
1543991455.4,286047000.3,N
1543991475.2,286047000.3,N
1543991495.0,286047004.4,N
1543991496.0,286047004.4,N
1543991515.8,286047004.8,N
1543991535.6,286047004.8,N
1543991555.5,286047002.9,N
1543991575.3,286047006.0,N
1543991595.1,286047003.9,N
1543991615.9,286047002.0,N
1543991635.7,286047002.5,N
1543991655.6,286047004.1,N
1543991675.4,286047004.3,N
1543991695.2,286047002.0,N
1543991715.1,286047002.0,N
1543991716.0,286047002.0,N
1543991735.8,286046999.7,N
1543991755.6,286047002.6,N
1543991775.5,286046999.8,N
1543991795.3,286047000.0,N
1543991815.1,286047000.0,N
1543991835.9,286047002.8,N
1543991855.7,286046999.7,N
1543991875.6,286046999.9,N
1543991895.4,286047000.4,N
1543991915.2,286046999.8,N
1543991935.1,286047002.6,N
1543991936.0,286047002.6,N
1543991955.8,286047000.4,N
1543991975.7,286047000.3,N
1543991995.5,286047001.0,N
1543992015.3,286047001.2,N
1543992035.2,286047000.7,N
1543992055.9,286047000.8,N
1543992075.7,286047000.1,N
1543992095.6,286047000.5,N
1543992115.4,286047001.0,N
1543992135.3,286046999.7,N
1543992155.1,286046998.5,N
1543992156.0,286046998.5,N
1543992175.8,286047000.0,N
1543992195.7,286047002.8,N
1543992215.5,286046999.8,N
1543992235.3,286047002.3,N
1543992255.2,286047000.1,N
1543992275.0,286047002.8,N
1543992275.9,286047002.8,N
1543992295.8,286046998.1,N
1543992315.6,286046998.5,N
1543992335.4,286046998.3,N
1543992355.3,286046998.2,N
1543992375.1,286046998.3,N
1543992395.9,286046999.4,N
1543992415.7,286046998.7,N
1543992435.5,286046998.2,N
1543992455.4,286046998.8,N
1543992475.2,286046999.3,N
1543992495.0,286046998.7,N
1543992495.9,286046998.7,N
1543992515.8,286046998.7,N
1543992535.6,286046999.1,N
1543992555.5,286046996.9,N
1543992575.3,286046997.7,N
1543992595.1,286046999.3,N
1543992615.9,286047001.2,N
1543992635.7,286046998.1,N
1543992655.5,286047000.6,N
1543992675.4,286047001.2,N
1543992695.2,286046998.1,N
1543992715.1,286046999.9,N
1543992716.0,286046999.9,N
1543992735.8,286047002.2,N
1543992755.6,286047002.1,N
1543992775.5,286047002.3,N
1543992795.3,286047004.4,N
1543992815.2,286047001.8,N
1543992835.9,286047004.1,N
1543992855.7,286047002.5,N
1543992875.6,286047000.1,N
1543992895.4,286046999.9,N
1543992915.2,286047000.5,N
1543992935.1,286047001.1,N
1543992936.0,286047001.1,N
1543992955.8,286047000.6,N
1543992975.7,286047000.7,N
1543992995.5,286047000.9,N
1543993015.3,286046998.2,N
1543993035.2,286046998.2,N
1543993055.0,286046999.8,N
1543993055.9,286046999.8,N
1543993075.7,286047002.7,N
1543993095.6,286047006.6,Y
1543993115.4,286047014.0,P
1543993135.3,286047018.3,N
1543993155.1,286047021.3,N
1543993156.0,286047021.3,N
1543993175.8,286047020.2,N
1543993195.7,286047020.4,N
